19-11-2022, 00:00:00,    261,    0.0,    4.1,   0.00,   0.00, 1007.9,   78.5, -999.0
19-11-2022, 00:00:10,    261,    0.2,    4.1,   0.00,   0.00, 1008.0,   78.8, -999.0
19-11-2022, 00:00:20,    260,    0.2,    4.1,   0.00,   0.00, 1008.0,   78.7, -999.0
19-11-2022, 00:00:31,    260,    0.0,    4.1,   0.00,   0.00, 1007.9,   78.6, -999.0
19-11-2022, 00:00:40,    260,    0.0,    4.1,   0.00,   0.00, 1007.9,   78.5, -999.0
19-11-2022, 00:00:50,    261,    0.0,    4.1,   0.00,   0.00, 1007.9,   78.6, -999.0
19-11-2022, 00:01:00,    261,    0.2,    4.1,   0.00,   0.00, 1008.0,   78.9, -999.0
19-11-2022, 00:01:10,    260,    0.1,    4.1,   0.00,   0.00, 1008.0,   78.8, -999.0
19-11-2022, 00:01:20,    260,    0.1,    4.1,   0.00,   0.00, 1008.0,   78.7, -999.0
19-11-2022, 00:01:30,    260,    0.2,    4.1,   0.00,   0.00, 1008.0,   78.7, -999.0
19-11-2022, 00:01:40,    260,    0.2,    4.1,   0.00,   0.00, 1008.0,   78.7, -999.0
19-11-2022, 00:01:50,    260,    0.0,    4.1,   0.00,   0.00, 1007.9,   78.5, -999.0
19-11-2022, 00:02:00,    260,    0.0,    4.1,   0.00,   0.00, 1007.9,   78.5, -999.0
19-11-2022, 00:02:10,    260,    0.0,    4.2,   0.00,   0.00, 1007.9,   78.6, -999.0
19-11-2022, 00:02:20,    260,    0.0,    4.0,   0.00,   0.00, 1007.9,   78.4, -999.0
19-11-2022, 00:02:30,    260,    0.0,    4.0,   0.00,   0.00, 1007.9,   78.4, -999.0
19-11-2022, 00:02:40,    260,    0.0,    4.1,   0.00,   0.00, 1007.9,   78.5, -999.0
19-11-2022, 00:02:50,    260,    0.0,    4.1,   0.00,   0.00, 1007.9,   78.6, -999.0
19-11-2022, 00:03:00,    260,    0.0,    4.1,   0.00,   0.00, 1007.9,   78.6, -999.0
19-11-2022, 00:03:10,    260,    0.0,    4.1,   0.00,   0.00, 1007.9,   78.5, -999.0
19-11-2022, 00:03:20,    260,    0.0,    4.1,   0.00,   0.00, 1007.9,   78.4, -999.0
19-11-2022, 00:03:30,    260,    0.0,    4.1,   0.00,   0.00, 1007.9,   78.4, -999.0
19-11-2022, 00:03:39,    260,    0.0,    3.9,   0.00,   0.00, 1007.9,   78.5, -999.0
19-11-2022, 00:03:50,    260,    0.0,    4.0,   0.00,   0.00, 1007.9,   78.5, -999.0
19-11-2022, 00:04:00,    260,    0.0,    4.0,   0.00,   0.00, 1007.9,   78.5, -999.0
19-11-2022, 00:04:09,    260,    0.0,    4.1,   0.00,   0.00, 1007.9,   78.5, -999.0
19-11-2022, 00:04:20,    260,    0.0,    4.1,   0.00,   0.00, 1007.9,   78.5, -999.0
19-11-2022, 00:04:30,    260,    0.0,    4.1,   0.00,   0.00, 1007.9,   78.5, -999.0
19-11-2022, 00:04:40,    260,    0.0,    4.0,   0.00,   0.00, 1007.9,   78.4, -999.0
19-11-2022, 00:04:49,    260,    0.0,    4.0,   0.00,   0.00, 1007.9,   78.5, -999.0
19-11-2022, 00:05:00,    260,    0.0,    4.1,   0.00,   0.00, 1007.9,   78.5, -999.0
19-11-2022, 00:05:10,    260,    0.2,    4.2,   0.00,   0.00, 1008.0,   78.8, -999.0
19-11-2022, 00:05:19,    260,    0.0,    4.1,   0.00,   0.00, 1007.9,   78.5, -999.0
19-11-2022, 00:05:29,    260,    0.0,    4.1,   0.00,   0.00, 1007.9,   78.6, -999.0
19-11-2022, 00:05:40,    260,    0.0,    4.1,   0.00,   0.00, 1007.9,   78.7, -999.0
19-11-2022, 00:05:49,    260,    0.0,    4.2,   0.00,   0.00, 1008.0,   78.8, -999.0
19-11-2022, 00:05:59,    260,    0.0,    4.1,   0.00,   0.00, 1007.9,   78.7, -999.0
19-11-2022, 00:06:09,    260,    0.0,    4.1,   0.00,   0.00, 1008.0,   78.6, -999.0
19-11-2022, 00:06:19,    259,    0.0,    4.1,   0.00,   0.00, 1007.9,   78.5, -999.0
19-11-2022, 00:06:29,    260,    0.0,    4.1,   0.00,   0.00, 1007.9,   78.5, -999.0
19-11-2022, 00:06:39,    258,    0.0,    4.1,   0.00,   0.00, 1007.9,   78.5, -999.0
19-11-2022, 00:06:49,    258,    0.0,    4.1,   0.00,   0.00, 1007.9,   78.4, -999.0
19-11-2022, 00:06:59,    259,    0.1,    4.1,   0.00,   0.00, 1008.0,   78.6, -999.0
19-11-2022, 00:07:09,    258,    0.1,    4.2,   0.00,   0.00, 1008.0,   78.8, -999.0
19-11-2022, 00:07:19,    258,    0.0,    4.2,   0.00,   0.00, 1008.0,   78.7, -999.0
19-11-2022, 00:07:29,    258,    0.0,    4.1,   0.00,   0.00, 1008.0,   78.5, -999.0
19-11-2022, 00:07:39,    258,    0.0,    4.0,   0.00,   0.00, 1008.0,   78.6, -999.0
19-11-2022, 00:07:49,    259,    0.2,    4.1,   0.00,   0.00, 1008.0,   78.6, -999.0
19-11-2022, 00:07:59,    258,    0.4,    4.2,   0.00,   0.00, 1008.1,   78.7, -999.0
19-11-2022, 00:08:09,    258,    0.1,    4.1,   0.00,   0.00, 1008.0,   78.5, -999.0
19-11-2022, 00:08:19,    258,    0.1,    4.1,   0.00,   0.00, 1008.0,   78.4, -999.0
19-11-2022, 00:08:29,    259,    0.0,    4.1,   0.00,   0.00, 1008.0,   78.3, -999.0
19-11-2022, 00:08:39,    258,    0.0,    4.1,   0.00,   0.00, 1008.0,   78.5, -999.0
19-11-2022, 00:08:49,    258,    0.2,    4.1,   0.00,   0.00, 1008.0,   78.8, -999.0
19-11-2022, 00:08:59,    258,    0.0,    3.9,   0.00,   0.00, 1008.0,   78.5, -999.0
19-11-2022, 00:09:09,    258,    0.0,    4.0,   0.00,   0.00, 1008.0,   78.5, -999.0
19-11-2022, 00:09:19,    257,    0.0,    4.0,   0.00,   0.00, 1008.0,   78.5, -999.0
19-11-2022, 00:09:29,    258,    0.0,    4.0,   0.00,   0.00, 1008.0,   78.5, -999.0
19-11-2022, 00:09:39,    258,    0.0,    4.0,   0.00,   0.00, 1008.0,   78.6, -999.0
19-11-2022, 00:09:49,    258,    0.0,    4.0,   0.00,   0.00, 1008.0,   78.6, -999.0
19-11-2022, 00:09:59,    258,    0.0,    4.0,   0.00,   0.00, 1008.0,   78.6, -999.0
19-11-2022, 00:10:09,    259,    0.0,    4.1,   0.00,   0.00, 1008.0,   78.6, -999.0
19-11-2022, 00:10:19,    258,    0.1,    4.1,   0.00,   0.00, 1008.1,   78.8, -999.0
19-11-2022, 00:10:29,    258,    0.0,    4.0,   0.00,   0.00, 1008.0,   78.6, -999.0
19-11-2022, 00:10:38,    258,    0.0,    4.1,   0.00,   0.00, 1008.0,   78.5, -999.0
19-11-2022, 00:10:49,    258,    0.0,    4.1,   0.00,   0.00, 1008.0,   78.6, -999.0
19-11-2022, 00:10:59,    258,    0.0,    4.0,   0.00,   0.00, 1008.0,   78.6, -999.0
19-11-2022, 00:11:08,    258,    0.0,    4.0,   0.00,   0.00, 1008.0,   78.6, -999.0
19-11-2022, 00:11:18,    258,    0.0,    4.0,   0.00,   0.00, 1008.0,   78.7, -999.0
19-11-2022, 00:11:29,    258,    0.0,    4.1,   0.00,   0.00, 1008.0,   78.7, -999.0
19-11-2022, 00:11:38,    259,    0.1,    4.1,   0.00,   0.00, 1008.1,   78.8, -999.0
19-11-2022, 00:11:48,    258,    0.0,    4.0,   0.00,   0.00, 1008.0,   78.5, -999.0
19-11-2022, 00:11:58,    258,    0.0,    4.0,   0.00,   0.00, 1008.0,   78.6, -999.0
19-11-2022, 00:12:08,    259,    0.4,    4.1,   0.00,   0.00, 1008.1,   78.7, -999.0
19-11-2022, 00:12:18,    258,    0.0,    4.0,   0.00,   0.00, 1008.0,   78.6, -999.0
19-11-2022, 00:12:28,    259,    0.0,    4.0,   0.00,   0.00, 1008.0,   78.5, -999.0
19-11-2022, 00:12:38,    258,    0.0,    4.0,   0.00,   0.00, 1008.0,   78.5, -999.0
19-11-2022, 00:12:48,    261,    0.0,    4.1,   0.00,   0.00, 1008.1,   78.6, -999.0
19-11-2022, 00:12:58,    261,    0.6,    4.0,   0.00,   0.00, 1008.1,   78.9, -999.0
19-11-2022, 00:13:08,    264,    0.0,    3.9,   0.00,   0.00, 1008.1,   78.7, -999.0
19-11-2022, 00:13:18,    241,    1.2,    4.1,   0.00,   0.00, 1008.1,   78.8, -999.0
19-11-2022, 00:13:28,    239,    1.3,    4.1,   0.00,   0.00, 1008.1,   78.9, -999.0
19-11-2022, 00:13:38,    239,    0.0,    4.0,   0.00,   0.00, 1008.0,   78.6, -999.0
19-11-2022, 00:13:48,    239,    0.0,    3.9,   0.00,   0.00, 1008.0,   78.6, -999.0
19-11-2022, 00:13:58,    239,    0.0,    3.9,   0.00,   0.00, 1008.0,   78.7, -999.0
19-11-2022, 00:14:08,    242,    0.6,    4.1,   0.00,   0.00, 1008.1,   79.0, -999.0
19-11-2022, 00:14:18,    244,    0.9,    4.1,   0.00,   0.00, 1008.2,   79.3, -999.0
19-11-2022, 00:14:28,    244,    1.1,    4.1,   0.00,   0.00, 1008.2,   79.2, -999.0
19-11-2022, 00:14:38,    244,    0.2,    4.0,   0.00,   0.00, 1008.1,   79.1, -999.0
19-11-2022, 00:14:48,    244,    0.3,    4.1,   0.00,   0.00, 1008.1,   79.1, -999.0
19-11-2022, 00:14:58,    244,    0.0,    4.0,   0.00,   0.00, 1008.0,   78.7, -999.0
19-11-2022, 00:15:08,    244,    0.0,    4.0,   0.00,   0.00, 1008.1,   78.9, -999.0
19-11-2022, 00:15:18,    244,    0.0,    4.0,   0.00,   0.00, 1008.0,   78.9, -999.0
19-11-2022, 00:15:28,    244,    0.0,    3.9,   0.00,   0.00, 1008.0,   78.9, -999.0
19-11-2022, 00:15:38,    244,    0.4,    4.0,   0.00,   0.00, 1008.2,   79.2, -999.0
19-11-2022, 00:15:48,    244,    0.5,    4.1,   0.00,   0.00, 1008.2,   79.3, -999.0
19-11-2022, 00:15:58,    244,    0.0,    4.0,   0.00,   0.00, 1008.1,   79.0, -999.0
19-11-2022, 00:16:08,    244,    0.4,    4.0,   0.00,   0.00, 1008.2,   79.2, -999.0
19-11-2022, 00:16:17,    244,    0.0,    3.9,   0.00,   0.00, 1008.0,   78.9, -999.0
19-11-2022, 00:16:28,    244,    0.0,    3.9,   0.00,   0.00, 1008.0,   78.9, -999.0
19-11-2022, 00:16:38,    244,    0.0,    3.9,   0.00,   0.00, 1008.0,   78.9, -999.0
19-11-2022, 00:16:47,    245,    0.1,    4.0,   0.00,   0.00, 1008.1,   79.0, -999.0
19-11-2022, 00:16:57,    244,    0.3,    4.0,   0.00,   0.00, 1008.2,   79.2, -999.0
19-11-2022, 00:17:08,    244,    0.1,    4.0,   0.00,   0.00, 1008.1,   79.1, -999.0
19-11-2022, 00:17:18,    244,    0.0,    3.9,   0.00,   0.00, 1008.0,   79.0, -999.0
19-11-2022, 00:17:27,    245,    0.0,    3.9,   0.00,   0.00, 1008.0,   79.0, -999.0
19-11-2022, 00:17:37,    245,    0.1,    4.0,   0.00,   0.00, 1008.1,   79.1, -999.0
19-11-2022, 00:17:48,    245,    0.2,    3.9,   0.00,   0.00, 1008.1,   79.1, -999.0
19-11-2022, 00:17:57,    245,    0.0,    3.9,   0.00,   0.00, 1008.1,   79.1, -999.0
19-11-2022, 00:18:07,    244,    0.0,    4.0,   0.00,   0.00, 1008.0,   79.0, -999.0
19-11-2022, 00:18:17,    245,    0.0,    3.9,   0.00,   0.00, 1008.0,   79.0, -999.0
19-11-2022, 00:18:27,    244,    0.0,    3.9,   0.00,   0.00, 1008.0,   79.1, -999.0
19-11-2022, 00:18:37,    245,    0.1,    3.9,   0.00,   0.00, 1008.1,   79.2, -999.0
19-11-2022, 00:18:47,    245,    1.0,    4.0,   0.00,   0.00, 1008.2,   79.5, -999.0
19-11-2022, 00:18:57,    244,    0.4,    4.1,   0.00,   0.00, 1008.2,   79.5, -999.0
19-11-2022, 00:19:07,    244,    0.2,    4.1,   0.00,   0.00, 1008.1,   79.4, -999.0
19-11-2022, 00:19:17,    244,    0.0,    4.0,   0.00,   0.00, 1008.0,   79.2, -999.0
19-11-2022, 00:19:27,    244,    0.0,    4.0,   0.00,   0.00, 1008.1,   79.2, -999.0
19-11-2022, 00:19:37,    244,    0.8,    4.1,   0.00,   0.00, 1008.2,   79.4, -999.0
19-11-2022, 00:19:47,    244,    0.9,    4.0,   0.00,   0.00, 1008.2,   79.4, -999.0
19-11-2022, 00:19:57,    243,    0.8,    4.1,   0.00,   0.00, 1008.2,   79.3, -999.0
19-11-2022, 00:20:07,    242,    0.6,    4.1,   0.00,   0.00, 1008.2,   79.3, -999.0
19-11-2022, 00:20:17,    242,    0.1,    4.0,   0.00,   0.00, 1008.1,   79.1, -999.0
19-11-2022, 00:20:27,    242,    0.0,    3.9,   0.00,   0.00, 1008.1,   79.0, -999.0
19-11-2022, 00:20:37,    242,    0.0,    3.9,   0.00,   0.00, 1008.1,   79.0, -999.0
19-11-2022, 00:20:47,    242,    0.5,    4.0,   0.00,   0.00, 1008.2,   79.3, -999.0
19-11-2022, 00:20:57,    245,    0.8,    4.1,   0.00,   0.00, 1008.2,   79.4, -999.0
19-11-2022, 00:21:07,    244,    0.0,    4.0,   0.00,   0.00, 1008.1,   79.1, -999.0
19-11-2022, 00:21:17,    244,    0.0,    3.9,   0.00,   0.00, 1008.1,   79.1, -999.0
19-11-2022, 00:21:27,    244,    0.0,    3.9,   0.00,   0.00, 1008.1,   79.1, -999.0
19-11-2022, 00:21:37,    245,    0.2,    4.0,   0.00,   0.00, 1008.2,   79.4, -999.0
19-11-2022, 00:21:46,    245,    0.2,    4.0,   0.00,   0.00, 1008.2,   79.4, -999.0
19-11-2022, 00:21:57,    245,    0.1,    4.0,   0.00,   0.00, 1008.1,   79.3, -999.0
19-11-2022, 00:22:07,    245,    0.0,    3.9,   0.00,   0.00, 1008.1,   79.2, -999.0
19-11-2022, 00:22:16,    245,    0.0,    4.0,   0.00,   0.00, 1008.1,   79.3, -999.0
19-11-2022, 00:22:27,    246,    0.2,    4.1,   0.00,   0.00, 1008.2,   79.4, -999.0
19-11-2022, 00:22:37,    247,    0.6,    4.0,   0.00,   0.00, 1008.2,   79.5, -999.0
19-11-2022, 00:22:46,    247,    0.5,    3.9,   0.00,   0.00, 1008.2,   79.5, -999.0
19-11-2022, 00:22:56,    247,    0.2,    3.9,   0.00,   0.00, 1008.2,   79.5, -999.0
19-11-2022, 00:23:07,    247,    0.5,    3.9,   0.00,   0.00, 1008.2,   79.6, -999.0
19-11-2022, 00:23:16,    247,    0.0,    3.9,   0.00,   0.00, 1008.1,   79.4, -999.0
19-11-2022, 00:23:26,    247,    0.0,    3.8,   0.00,   0.00, 1008.1,   79.3, -999.0
19-11-2022, 00:23:36,    247,    0.0,    3.8,   0.00,   0.00, 1008.1,   79.4, -999.0
19-11-2022, 00:23:47,    247,    0.0,    3.9,   0.00,   0.00, 1008.1,   79.4, -999.0
19-11-2022, 00:23:56,    247,    0.0,    3.9,   0.00,   0.00, 1008.1,   79.5, -999.0
19-11-2022, 00:24:06,    247,    0.0,    4.0,   0.00,   0.00, 1008.1,   79.5, -999.0
19-11-2022, 00:24:16,    246,    0.0,    3.9,   0.00,   0.00, 1008.1,   79.6, -999.0
19-11-2022, 00:24:26,    247,    0.0,    3.9,   0.00,   0.00, 1008.1,   79.5, -999.0
19-11-2022, 00:24:36,    247,    0.0,    3.9,   0.00,   0.00, 1008.1,   79.5, -999.0
19-11-2022, 00:24:46,    247,    0.0,    3.8,   0.00,   0.00, 1008.1,   79.5, -999.0
19-11-2022, 00:24:56,    246,    0.0,    4.0,   0.00,   0.00, 1008.1,   79.6, -999.0
19-11-2022, 00:25:06,    247,    0.0,    4.0,   0.00,   0.00, 1008.1,   79.7, -999.0
19-11-2022, 00:25:16,    246,    0.0,    3.9,   0.00,   0.00, 1008.0,   79.5, -999.0
19-11-2022, 00:25:26,    247,    0.0,    3.9,   0.00,   0.00, 1008.1,   79.6, -999.0
19-11-2022, 00:25:36,    247,    0.0,    4.0,   0.00,   0.00, 1008.1,   79.6, -999.0
19-11-2022, 00:25:46,    246,    0.0,    3.9,   0.00,   0.00, 1008.1,   79.6, -999.0
19-11-2022, 00:25:56,    245,    0.0,    4.0,   0.00,   0.00, 1008.1,   79.6, -999.0
19-11-2022, 00:26:06,    247,    0.0,    4.0,   0.00,   0.00, 1008.1,   79.5, -999.0
19-11-2022, 00:26:16,    247,    0.0,    4.0,   0.00,   0.00, 1008.1,   79.5, -999.0
19-11-2022, 00:26:26,    247,    0.0,    3.9,   0.00,   0.00, 1008.1,   79.4, -999.0
19-11-2022, 00:26:36,    247,    0.0,    4.0,   0.00,   0.00, 1008.1,   79.5, -999.0
19-11-2022, 00:26:46,    247,    0.0,    3.9,   0.00,   0.00, 1008.1,   79.5, -999.0
19-11-2022, 00:26:56,    247,    0.0,    3.9,   0.00,   0.00, 1008.1,   79.5, -999.0
19-11-2022, 00:27:06,    247,    0.0,    3.9,   0.00,   0.00, 1008.1,   79.6, -999.0
19-11-2022, 00:27:16,    247,    0.0,    3.9,   0.00,   0.00, 1008.1,   79.5, -999.0
19-11-2022, 00:27:26,    247,    0.0,    3.9,   0.00,   0.00, 1008.1,   79.6, -999.0
19-11-2022, 00:27:35,    246,    0.0,    4.0,   0.00,   0.00, 1008.1,   79.7, -999.0
19-11-2022, 00:27:46,    247,    0.0,    4.0,   0.00,   0.00, 1008.1,   79.7, -999.0
19-11-2022, 00:27:56,    247,    0.0,    4.0,   0.00,   0.00, 1008.1,   79.6, -999.0
19-11-2022, 00:28:05,    247,    0.0,    4.0,   0.00,   0.00, 1008.1,   79.7, -999.0
19-11-2022, 00:28:16,    248,    0.0,    4.1,   0.00,   0.00, 1008.1,   79.7, -999.0
19-11-2022, 00:28:26,    248,    0.0,    4.1,   0.00,   0.00, 1008.1,   79.7, -999.0
19-11-2022, 00:28:35,    247,    0.0,    4.0,   0.00,   0.00, 1008.1,   79.5, -999.0
19-11-2022, 00:28:45,    247,    0.0,    3.9,   0.00,   0.00, 1008.1,   79.5, -999.0
19-11-2022, 00:28:56,    248,    0.0,    4.0,   0.00,   0.00, 1008.1,   79.5, -999.0
19-11-2022, 00:29:05,    248,    0.0,    4.0,   0.00,   0.00, 1008.1,   79.6, -999.0
19-11-2022, 00:29:15,    247,    0.0,    3.9,   0.00,   0.00, 1008.1,   79.5, -999.0
19-11-2022, 00:29:25,    248,    0.0,    3.9,   0.00,   0.00, 1008.1,   79.4, -999.0
19-11-2022, 00:29:36,    247,    0.0,    3.9,   0.00,   0.00, 1008.1,   79.5, -999.0
19-11-2022, 00:29:45,    247,    0.0,    3.9,   0.00,   0.00, 1008.1,   79.4, -999.0
19-11-2022, 00:29:55,    244,    0.0,    3.8,   0.00,   0.00, 1008.1,   79.6, -999.0
19-11-2022, 00:30:05,    248,    0.0,    3.8,   0.00,   0.00, 1008.1,   79.7, -999.0
19-11-2022, 00:30:15,    247,    0.0,    3.9,   0.00,   0.00, 1008.1,   79.5, -999.0
19-11-2022, 00:30:25,    247,    0.0,    3.8,   0.00,   0.00, 1008.1,   79.6, -999.0
19-11-2022, 00:30:35,    247,    0.0,    3.8,   0.00,   0.00, 1008.1,   79.5, -999.0
19-11-2022, 00:30:45,    248,    0.3,    4.0,   0.00,   0.00, 1008.2,   79.7, -999.0
19-11-2022, 00:30:55,    248,    0.1,    4.0,   0.00,   0.00, 1008.2,   79.8, -999.0
19-11-2022, 00:31:05,    248,    0.1,    4.0,   0.00,   0.00, 1008.2,   79.9, -999.0
19-11-2022, 00:31:15,    248,    0.1,    3.8,   0.00,   0.00, 1008.2,   79.8, -999.0
19-11-2022, 00:31:25,    248,    0.0,    3.9,   0.00,   0.00, 1008.1,   79.7, -999.0
19-11-2022, 00:31:35,    248,    0.0,    3.9,   0.00,   0.00, 1008.1,   79.6, -999.0
19-11-2022, 00:31:45,    248,    0.0,    3.9,   0.00,   0.00, 1008.1,   79.8, -999.0
19-11-2022, 00:31:55,    248,    0.0,    3.9,   0.00,   0.00, 1008.1,   79.8, -999.0
19-11-2022, 00:32:05,    249,    0.0,    3.9,   0.00,   0.00, 1008.1,   79.8, -999.0
19-11-2022, 00:32:15,    248,    0.1,    3.9,   0.00,   0.00, 1008.2,   80.0, -999.0
19-11-2022, 00:32:25,    248,    0.0,    3.8,   0.00,   0.00, 1008.1,   79.9, -999.0
19-11-2022, 00:32:35,    248,    0.0,    3.9,   0.00,   0.00, 1008.1,   79.9, -999.0
19-11-2022, 00:32:45,    248,    0.0,    3.9,   0.00,   0.00, 1008.1,   79.9, -999.0
19-11-2022, 00:32:55,    249,    0.0,    3.9,   0.00,   0.00, 1008.1,   80.0, -999.0
19-11-2022, 00:33:05,    249,    0.0,    3.9,   0.00,   0.00, 1008.1,   80.0, -999.0
19-11-2022, 00:33:15,    249,    0.0,    3.9,   0.00,   0.00, 1008.1,   80.0, -999.0
19-11-2022, 00:33:24,    248,    0.0,    3.9,   0.00,   0.00, 1008.1,   79.9, -999.0
19-11-2022, 00:33:35,    249,    0.0,    3.8,   0.00,   0.00, 1008.2,   79.9, -999.0
19-11-2022, 00:33:45,    249,    0.0,    3.9,   0.00,   0.00, 1008.2,   80.0, -999.0
19-11-2022, 00:33:54,    249,    0.0,    3.9,   0.00,   0.00, 1008.1,   79.9, -999.0
19-11-2022, 00:34:04,    249,    0.0,    3.9,   0.00,   0.00, 1008.1,   80.0, -999.0
19-11-2022, 00:34:16,    249,    0.0,    3.9,   0.00,   0.00, 1008.1,   79.9, -999.0
19-11-2022, 00:34:24,    249,    0.0,    3.9,   0.00,   0.00, 1008.1,   79.9, -999.0
19-11-2022, 00:34:34,    249,    0.0,    3.8,   0.00,   0.00, 1008.1,   79.9, -999.0
19-11-2022, 00:34:45,    249,    0.0,    3.9,   0.00,   0.00, 1008.1,   79.9, -999.0
19-11-2022, 00:34:55,    249,    0.0,    3.9,   0.00,   0.00, 1008.1,   79.9, -999.0
19-11-2022, 00:35:04,    249,    0.0,    3.9,   0.00,   0.00, 1008.1,   80.0, -999.0
19-11-2022, 00:35:14,    249,    0.0,    3.9,   0.00,   0.00, 1008.1,   79.9, -999.0
19-11-2022, 00:35:25,    249,    0.0,    3.8,   0.00,   0.00, 1008.1,   80.0, -999.0
19-11-2022, 00:35:34,    249,    0.0,    3.9,   0.00,   0.00, 1008.1,   80.0, -999.0
19-11-2022, 00:35:44,    249,    0.0,    4.0,   0.00,   0.00, 1008.1,   80.1, -999.0
19-11-2022, 00:35:54,    249,    0.0,    4.0,   0.00,   0.00, 1008.1,   80.0, -999.0
19-11-2022, 00:36:04,    249,    0.0,    3.9,   0.00,   0.00, 1008.1,   79.9, -999.0
19-11-2022, 00:36:14,    249,    0.0,    3.9,   0.00,   0.00, 1008.1,   79.9, -999.0
19-11-2022, 00:36:24,    249,    0.0,    3.9,   0.00,   0.00, 1008.1,   79.9, -999.0
19-11-2022, 00:36:34,    249,    0.0,    3.9,   0.00,   0.00, 1008.1,   79.9, -999.0
19-11-2022, 00:36:44,    249,    0.0,    3.9,   0.00,   0.00, 1008.1,   79.9, -999.0
19-11-2022, 00:36:54,    249,    0.0,    3.9,   0.00,   0.00, 1008.1,   79.9, -999.0
19-11-2022, 00:37:04,    249,    0.0,    3.9,   0.00,   0.00, 1008.1,   79.9, -999.0
19-11-2022, 00:37:14,    249,    0.0,    3.9,   0.00,   0.00, 1008.1,   79.8, -999.0
19-11-2022, 00:37:24,    249,    0.0,    3.9,   0.00,   0.00, 1008.1,   79.9, -999.0
19-11-2022, 00:37:34,    249,    0.0,    3.9,   0.00,   0.00, 1008.1,   80.0, -999.0
19-11-2022, 00:37:44,    248,    0.0,    4.0,   0.00,   0.00, 1008.1,   80.1, -999.0
19-11-2022, 00:37:54,    249,    0.0,    3.9,   0.00,   0.00, 1008.1,   80.0, -999.0
19-11-2022, 00:38:04,    249,    0.0,    3.9,   0.00,   0.00, 1008.1,   80.0, -999.0
19-11-2022, 00:38:14,    249,    0.0,    4.0,   0.00,   0.00, 1008.1,   80.0, -999.0
19-11-2022, 00:38:24,    249,    0.0,    4.0,   0.00,   0.00, 1008.1,   79.9, -999.0
19-11-2022, 00:38:34,    249,    0.0,    4.0,   0.00,   0.00, 1008.2,   79.8, -999.0
19-11-2022, 00:38:44,    249,    0.0,    3.9,   0.00,   0.00, 1008.2,   79.8, -999.0
19-11-2022, 00:38:54,    249,    0.0,    3.9,   0.00,   0.00, 1008.2,   79.8, -999.0
19-11-2022, 00:39:04,    249,    0.0,    3.9,   0.00,   0.00, 1008.2,   79.8, -999.0
19-11-2022, 00:39:13,    249,    0.0,    3.9,   0.00,   0.00, 1008.2,   79.9, -999.0
19-11-2022, 00:39:24,    249,    0.0,    4.1,   0.00,   0.00, 1008.2,   80.0, -999.0
19-11-2022, 00:39:34,    249,    0.0,    3.9,   0.00,   0.00, 1008.1,   79.9, -999.0
19-11-2022, 00:39:44,    250,    0.0,    4.0,   0.00,   0.00, 1008.2,   79.9, -999.0
19-11-2022, 00:39:53,    249,    0.0,    4.1,   0.00,   0.00, 1008.1,   79.8, -999.0
19-11-2022, 00:40:04,    249,    0.0,    3.9,   0.00,   0.00, 1008.2,   79.9, -999.0
19-11-2022, 00:40:14,    249,    0.0,    3.9,   0.00,   0.00, 1008.2,   79.8, -999.0
19-11-2022, 00:40:23,    249,    0.0,    3.9,   0.00,   0.00, 1008.2,   79.9, -999.0
19-11-2022, 00:40:33,    249,    0.0,    3.9,   0.00,   0.00, 1008.1,   79.8, -999.0
19-11-2022, 00:40:44,    248,    0.0,    3.9,   0.00,   0.00, 1008.2,   79.9, -999.0
19-11-2022, 00:40:53,    249,    0.0,    3.9,   0.00,   0.00, 1008.1,   79.9, -999.0
19-11-2022, 00:41:03,    249,    0.0,    4.0,   0.00,   0.00, 1008.2,   79.8, -999.0
19-11-2022, 00:41:14,    249,    0.0,    4.0,   0.00,   0.00, 1008.2,   79.8, -999.0
19-11-2022, 00:41:23,    249,    0.0,    4.0,   0.00,   0.00, 1008.2,   79.8, -999.0
19-11-2022, 00:41:33,    249,    0.0,    4.0,   0.00,   0.00, 1008.2,   79.8, -999.0
19-11-2022, 00:41:43,    249,    0.4,    4.0,   0.00,   0.00, 1008.3,   80.0, -999.0
19-11-2022, 00:41:53,    249,    0.0,    3.9,   0.00,   0.00, 1008.2,   79.7, -999.0
19-11-2022, 00:42:03,    249,    0.0,    3.9,   0.00,   0.00, 1008.2,   79.7, -999.0
19-11-2022, 00:42:13,    249,    0.0,    3.9,   0.00,   0.00, 1008.2,   79.9, -999.0
19-11-2022, 00:42:23,    249,    0.0,    3.9,   0.00,   0.00, 1008.2,   79.8, -999.0
19-11-2022, 00:42:33,    249,    0.0,    3.9,   0.00,   0.00, 1008.2,   79.8, -999.0
19-11-2022, 00:42:43,    249,    0.0,    3.9,   0.00,   0.00, 1008.3,   79.8, -999.0
19-11-2022, 00:42:53,    249,    0.0,    3.9,   0.00,   0.00, 1008.2,   79.8, -999.0
19-11-2022, 00:43:03,    249,    0.0,    4.0,   0.00,   0.00, 1008.3,   79.8, -999.0
19-11-2022, 00:43:13,    249,    0.0,    4.0,   0.00,   0.00, 1008.2,   79.8, -999.0
19-11-2022, 00:43:23,    249,    0.0,    3.9,   0.00,   0.00, 1008.2,   79.8, -999.0
19-11-2022, 00:43:33,    249,    0.0,    4.0,   0.00,   0.00, 1008.2,   79.8, -999.0
19-11-2022, 00:43:43,    249,    0.0,    4.0,   0.00,   0.00, 1008.2,   79.8, -999.0
19-11-2022, 00:43:53,    249,    0.0,    3.9,   0.00,   0.00, 1008.2,   79.8, -999.0
19-11-2022, 00:44:03,    249,    0.0,    4.0,   0.00,   0.00, 1008.2,   79.9, -999.0
19-11-2022, 00:44:13,    249,    0.0,    3.9,   0.00,   0.00, 1008.2,   79.9, -999.0
19-11-2022, 00:44:23,    249,    0.0,    4.0,   0.00,   0.00, 1008.2,   80.0, -999.0
19-11-2022, 00:44:33,    249,    0.0,    4.0,   0.00,   0.00, 1008.2,   79.9, -999.0
19-11-2022, 00:44:43,    250,    0.0,    3.9,   0.00,   0.00, 1008.2,   79.8, -999.0
19-11-2022, 00:44:53,    249,    0.2,    3.9,   0.00,   0.00, 1008.3,   80.1, -999.0
19-11-2022, 00:45:02,    249,    0.0,    3.9,   0.00,   0.00, 1008.2,   79.8, -999.0
19-11-2022, 00:45:13,    248,    0.0,    3.9,   0.00,   0.00, 1008.2,   79.7, -999.0
19-11-2022, 00:45:23,    250,    0.0,    3.9,   0.00,   0.00, 1008.2,   79.7, -999.0
19-11-2022, 00:45:32,    249,    0.0,    4.0,   0.00,   0.00, 1008.2,   79.7, -999.0
19-11-2022, 00:45:42,    249,    0.0,    3.9,   0.00,   0.00, 1008.2,   79.6, -999.0
19-11-2022, 00:45:53,    249,    0.0,    3.9,   0.00,   0.00, 1008.2,   79.7, -999.0
19-11-2022, 00:46:03,    249,    0.0,    3.9,   0.00,   0.00, 1008.2,   79.7, -999.0
19-11-2022, 00:46:12,    249,    0.0,    3.9,   0.00,   0.00, 1008.2,   79.7, -999.0
19-11-2022, 00:46:22,    249,    0.0,    3.9,   0.00,   0.00, 1008.2,   79.7, -999.0
19-11-2022, 00:46:33,    250,    0.0,    3.9,   0.00,   0.00, 1008.2,   79.8, -999.0
19-11-2022, 00:46:42,    249,    0.0,    4.0,   0.00,   0.00, 1008.2,   79.9, -999.0